Regional Weather Roundup
Issued by NWS Upton, NY

Current Version | Previous Version | Graphics & Text | Print | Product List | Glossary Off
Versions: 1 2 3 4 5 6 7 8 9 10 11 12 13 14 15 16 17 18 19 20 21 22 23 24 25 26 27

000
ASUS41 KOKX 250909
RWROKX

REGIONAL WEATHER ROUNDUP
NATIONAL WEATHER SERVICE NEW YORK NY
500 AM EDT THU MAY 25 2017

NOTE: "FAIR" INDICATES FEW OR NO CLOUDS BELOW 12,000 FEET WITH NO
SIGNIFICANT WEATHER AND/OR OBSTRUCTIONS TO VISIBILITY.

NYZ071-072-176-178-NJZ106-104-251000-
NEW YORK CITY METRO AREA

CITY           SKY/WX    TMP DP  RH WIND       PRES   REMARKS
Central Park   LGT RAIN  57  54  89 VRB5      29.77F
Wall St Helipt LGT RAIN  57  54  89 E8        29.76R
Bronx Bot Gard   N/A     55  52  88 CALM      29.76S
LaGuardia APRT LGT RAIN  57  53  86 E7        29.74F
Kennedy INTL   LGT RAIN  57  57 100 E8        29.75S
Breezy Point     N/A     54 N/A N/A E16G23      N/A
Newark/Liberty LGT RAIN  57  55  93 E6        29.75S
Teterboro      LGT RAIN  57  54  89 E5G16     29.74S
$$

NYZ177-179-078>081-251000-
LONG ISLAND NEW YORK

CITY           SKY/WX    TMP DP  RH WIND       PRES   REMARKS
Jones Beach      N/A     55 N/A N/A E17G26      N/A
Matinecock PT    N/A     55 N/A N/A E21         N/A
Farmingdale    CLOUDY    56  53  90 E10G22    29.74F
MacArthur/ISP  LGT RAIN  56  54  93 E12G22    29.74F
Shirley        CLOUDY    56  56 100 VRB5      29.76F
Mt Sinai Harb    N/A     55 N/A N/A E12         N/A
Westhampton    LGT RAIN  55  51  86 E13G23    29.77F
East Hampton   CLOUDY    55  51  87 E12G18    29.77F
Montauk          N/A     56  52  86 E9        29.80F
$$

NYZ052-065-067-251000-
HUDSON VALLEY

CITY           SKY/WX    TMP DP  RH WIND       PRES   REMARKS
White Plains   CLOUDY    55  51  86 E9G18     29.74F
Larchmont Harb   N/A     55 N/A N/A NE25        N/A
Croton O-T Hud   N/A     57 N/A N/A E2G8        N/A
Newburgh       MOCLDY    55  52  88 E9        29.78F
Montgomery     LGT RAIN  55  51  86 NE7       29.76F
Poughkeepsie   CLOUDY    55  50  83 NE5       29.77S
Albany         CLOUDY    59  46  62 S9        29.79S
$$

NJZ001-105-106-008-010-013-015-019>022-104-251000-
NEW JERSEY

CITY           SKY/WX    TMP DP  RH WIND       PRES   REMARKS
Newark/Liberty LGT RAIN  57  55  93 E6        29.75S
Teterboro      LGT RAIN  57  54  89 E5G16     29.74S
Caldwell       LGT RAIN  57  53  86 E8        29.75S
Somerville     LGT RAIN  56  54  93 VRB6      29.70F FOG
Linden         NOT AVBL
Perth Amboy      N/A     55 N/A N/A E17         N/A
Sussex         LGT RAIN  56  52  86 E5        29.75S
Andover          N/A     55  52  89 VRB5      29.73F
Trenton        RAIN      55  54  96 E14G21    29.67F
Millville      HVY RAIN  54  54 100 E10       29.60F FOG
Atlantic City  LGT RAIN  55  53  93 E15G24    29.64F
Wrightstown    LGT RAIN  54  53  95 E14G20    29.65F
Toms River     RAIN      54  53  97 E8G17     29.69F
Belmar         LGT RAIN  54  53  97 E16       29.70F
$$

PAZ047>061-062-071-251000-
EASTERN PENNSYLVANIA

CITY           SKY/WX    TMP DP  RH WIND       PRES   REMARKS
Philadelphia   LGT RAIN  56  53  90 E13G21    29.65F
Allentown      LGT RAIN  57  53  86 E12G20    29.67F
Scranton       CLOUDY    57  51  80 VRB7      29.68S
$$

CTZ002-004>006-009-010-012-RIZ004-006-007-MAZ004-011-015-251000-
SOUTHERN NEW ENGLAND
 IN CT

CITY           SKY/WX    TMP DP  RH WIND       PRES   REMARKS
Bradley INTL   CLOUDY    53  49  86 N6        29.83S
Hartford       CLOUDY    56  48  74 NE3       29.81F
Danbury        CLOUDY    54  51  90 E10       29.79F
Wtrbury/Oxford   N/A     54  46  76 E7        29.80F
Bridgeport     CLOUDY    59  51  75 E18       29.77F
Meriden        CLOUDY    56  49  77 VRB3      29.80F
New Haven      CLOUDY    57  50  77 E7        29.78F
Chester        NOT AVBL
Groton         CLOUDY    57  50  77 NE12      29.79F
Wilimantic     CLOUDY    56  49  77 NE8       29.83S

 IN RI

CITY           SKY/WX    TMP DP  RH WIND       PRES   REMARKS
Providence     CLOUDY    53  51  93 NE9       29.84F
Block Island   CLOUDY    55  53  93 E17G23    29.80F
Westerly       CLOUDY    58  53  84 NE9       29.81F
 IN MA

CITY           SKY/WX    TMP DP  RH WIND       PRES   REMARKS
Boston         CLOUDY    54  52  93 E10       29.88R
Worcester      CLOUDY    50  47  89 E8        29.85R
Westfield      CLOUDY    52  50  93 N6        29.84R
Provincetown   CLOUDY    52  50  93 E10       29.87S
Nantucket      CLOUDY    53  49  86 NE13      29.82F
$$

ANZ330-335-338-340-345-350-353-355-251000-
COASTAL MARINE OBSERVATIONS


STATION/POSITION TIME  SKY/WX   TEMP    WIND        PRES    VSBY  WAVE
                                AIR SEA DIR/SP/G                  HT/PER
                 (UTC)          (F)     (DEG/KT/KT) (MB)    (MI)  (FT/S)
NY HARB ENTRANCE 0750            55 57   80/ 19/ 23 1006.8          6/ 7
20 S FIRE ISLAND 0850            53 55   90/ 19/ 23 1005.5          7/ 8
GREAT SOUTH BAY  0830            57 64   80/ 19/ 25   N/A
23 SSW MONTAUK P 0750            54 54              1008.4          5/ 8
15 E BARNEGAT LI 0830               57                N/A           6/ 7
HUDSON CANYON    0750            53 52  100/ 12/ 12 1006.8          6/ 8
KINGS POINT      0842            56 57   90/  5/  9 1007.0
EXECUTION ROCKS  0845            58                   N/A
CENTRAL LI SOUND 0830            56      80/ 16/ 19   N/A           1/ 4
EASTERN LI SOUND NOT AVBL
ROBBINS REEF     0842            56     100/ 11/ 15 1007.6
$$


>>>>>>>>>>>>>>>>>>>>>>>>>>>> KEY <<<<<<<<<<<<<<<<<<<<<<<<<<<
>                                                          <
>     SKY/WX - Sky Condition/Present Weather               <
>     TMP    - Temperature in Fahrenheit                   <
>     DP     - Dew Point in Fahrenheit                     <
>     RH     - Relative Humidity in Percent                <
>     WIND   - Direction (from) and Speed in MPH           <
>     PRES   - Mean Sea Level Pressure (inches of Hg)      <
>     WCI    - Wind Chill Index                            <
>     VSB    - VISIBILITY IN MILES                         <
>     HX     - HEAT INDEX                                  <
>     TC     - TEMPERATURE IN CELSIUS                      <
>     VRB    - VARIABLE WIND DIRECTION                     <
>                                                          <
>>>>>>>>>>>>>>>>>>>>>>>>>>>> KEY <<<<<<<<<<<<<<<<<<<<<<<<<<<




USA.gov is the U.S. government's official web portal to all federal, state and local government web resources and services.